Miscellaneous Local Product
Issued by NWS Hastings, NE

Home | Current Version | Previous Version | Text Only | Print | Product List | Glossary On
Versions: 1 2 3 4 5 6 7 8 9 10 11 12 13 14 15 16 17 18 19 20 21 22 23 24 25 26 27 28 29 30 31 32 33 34 35 36 37 38 39 40 41 42 43 44 45 46 47 48 49 50
000
AXUS43 KGID 210902
MISGRI

GID CWA HOURLY WEATHER ROUNDUP
NATIONAL WEATHER SERVICE HASTINGS NE
400 AM CDT TUE APR 21 2015

NOTE: "FAIR" INDICATES FEW OR NO CLOUDS BELOW 12,000 FEET WITH NO
SIGNIFICANT WEATHER AND/OR OBSTRUCTIONS TO VISIBILITY.

...SOUTH CENTRAL NEBRASKA...

CITY           SKY/WX    TMP DP  RH WIND       PRES   REMARKS
GRAND ISLAND   CLOUDY    41  31  67 W9        29.88S
HASTINGS       MOCLDY    37  29  72 NW8       29.88R WCI  31
KEARNEY        PTCLDY    36  27  69 NW6       29.89S WCI  31
ORD            MOCLDY    37  29  72 NW6       29.85F WCI  32
YORK           CLOUDY    45  34  65 W9        29.87R
AURORA         MOCLDY    41  32  69 W8        29.87S
LEXINGTON      PTCLDY    33  31  89 NW6       29.90S WCI  28
HOLDREGE       CLOUDY    37  28  70 W5        29.89F WCI  34
HEBRON         CLEAR     35  28  76 NW5       29.88S WCI  31

...NEBRASKA PANHANDLE...

CITY           SKY/WX    TMP DP  RH WIND       PRES   REMARKS
CHADRON        CLEAR     25  21  85 W7        29.91F WCI  17
ALLIANCE       CLEAR     24  21  88 W3        29.91S
SCOTTSBLUFF    CLEAR     29  25  85 NW5       29.92S WCI  24
SIDNEY         CLEAR     32  27  81 W12       29.92S WCI  23

...WESTERN AND NORTH CENTRAL NEBRASKA...

CITY           SKY/WX    TMP DP  RH WIND       PRES   REMARKS
VALENTINE      CLEAR     28  23  81 SW7       29.86F WCI  21
AINSWORTH      CLEAR     37  25  61 W8        29.85F WCI  31
ONEILL         CLEAR     36  24  61 W9        29.83F WCI  29
BROKEN BOW     CLOUDY    38  27  64 CALM      29.87F
IMPERIAL       CLEAR     33  26  75 NW6       29.90F WCI  28
NORTH PLATTE   CLEAR     28  25  88 NW5       29.90S WCI  23
MCCOOK         CLOUDY    38  31  76 NW5       29.90S WCI  34

...EASTERN NEBRASKA...

CITY           SKY/WX    TMP DP  RH WIND       PRES   REMARKS
NORFOLK        CLEAR     38  24  57 W9        29.82S WCI  31
SO SIOUX CITY  CLEAR     34  16  47 W8        29.79R WCI  27
TEKAMAH        CLEAR     39  23  52 W12       29.80R WCI  32
COLUMBUS       PTCLDY    39  23  52 W8        29.86R WCI  34
ALBION         CLEAR     38  20  48 NW3       29.85S
OMAHA EPPLEY   MOCLDY    45  21  38 W12       29.81R
OFFUTT AFB     PTCLDY    37  26  63 W7        29.81R WCI  32
MILLARD        PTCLDY    44  25  48 NW3       29.82R
LINCOLN        MOCLDY    44  31  60 W6        29.86S
NEBRASKA CITY  MOCLDY    41  27  57 W10       29.83R
BEATRICE       MOCLDY    40  33  74 W7        29.86R
FALLS CITY     CLOUDY    46  30  53 SW14      29.83S

...NORTHERN KANSAS...

CITY           SKY/WX    TMP DP  RH WIND       PRES   REMARKS
GOODLAND       CLEAR     39  32  76 W13       29.91F WCI  31
HILL CITY      CLOUDY    42  33  70 W5        29.89S
NORTON         PTSUNNY   36  28  75 NW9       29.89R WCI  29
PHILLIPSBURG   CLEAR     41  34  75 NW10      29.89S
SMITH CENTER   PTCLDY    36  27  69 N7        29.89S WCI  30
BELOIT         PTCLDY    32  30  93 N6        29.88S WCI  26
HAYS           CLEAR     41  27  56 W6        29.87F
RUSSELL        CLEAR     41  31  67 SW8       29.86F
CONCORDIA      PTCLDY    41  30  65 W8        29.88S
SALINA         CLEAR     44  35  70 CALM      29.88S
TOPEKA         MOCLDY    44  33  65 W5        29.88S



USA.gov is the U.S. government's official web portal to all federal, state and local government web resources and services.